YD2CLX-18 Weather Reports


time (UTC)temp
C
wind
direction
speed
KPH
gust
KPH
rain 1hr
cm
rain 24hr
cm
rain mn
cm
humidity
%
barometer
mb
20260504204554 29 124 6.4 6.4 0.00 0.00 0.00 87 1009.0
20260504203055 29 124 6.4 6.4 0.00 0.00 0.00 87 1009.0
20260504201555 29 131 6.4 6.4 0.00 0.00 0.00 88 1009.0
20260504200056 29 131 6.4 6.4 0.00 0.00 0.00 87 1009.0
20260504194555 29 131 6.4 6.4 0.00 0.00 0.00 87 1009.0
20260504193055 29 131 6.4 6.4 0.00 0.00 0.00 86 1009.0
20260504191554 29 136 6.4 4.8 0.00 0.00 0.00 88 1009.0
20260504190056 29 136 6.4 4.8 0.00 0.00 0.00 87 1009.0
20260504184555 29 136 6.4 4.8 0.00 0.00 0.00 87 1009.0
20260504183055 29 136 6.4 4.8 0.00 0.00 0.00 87 1009.0
20260504181554 29 151 4.8 4.8 0.00 0.00 0.00 88 1010.0
20260504180059 29 151 4.8 4.8 0.00 0.00 0.00 88 1010.0
20260504174555 28 194 6.4 4.8 0.00 0.00 0.00 89 1010.0
20260504173055 29 194 6.4 4.8 0.03 0.00 0.00 89 1010.0
20260504171554 29 204 4.8 3.2 0.00 0.00 0.00 89 1011.0
20260504081512 30 46 3.2 3.2 0.00 0.00 0.00 76 1008.0
20260504050011 30 46 3.2 3.2 0.00 0.00 0.00 76 1010.0
20260504044511 30 46 3.2 3.2 0.00 0.00 0.00 76 1010.0
20260504043011 30 46 3.2 3.2 0.00 0.00 0.00 76 1010.0
20260504041512 30 46 3.2 3.2 0.00 0.00 0.00 76 1011.0
20260504040011 30 46 3.2 3.2 0.00 0.00 0.00 76 1011.0
20260504034511 30 46 3.2 3.2 0.00 0.00 0.00 76 1011.0
20260504033011 30 46 3.2 3.2 0.00 0.00 0.00 76 1011.0
20260504031511 30 46 3.2 3.2 0.00 0.00 0.00 76 1012.0
20260504030012 30 46 3.2 3.2 0.00 0.00 0.00 76 1012.0
20260504024511 30 46 3.2 3.2 0.00 0.00 0.00 76 1012.0
20260504023012 30 46 3.2 3.2 0.00 0.00 0.00 76 1012.0
20260504021511 30 46 3.2 3.2 0.00 0.00 0.00 76 1012.0
20260504020012 30 46 3.2 3.2 0.00 0.00 0.00 76 1012.0
20260504014512 30 46 3.2 3.2 0.00 0.00 0.00 76 1012.0
20260504013057 30 46 3.2 3.2 0.03 0.00 0.00 76 1012.0
20260504011557 30 65 1.6 3.2 0.00 0.00 0.00 81 1011.0
20260504010058 30 65 1.6 3.2 0.00 0.00 0.00 79 1011.0
20260504004556 29 65 1.6 3.2 0.00 0.00 0.00 79 1011.0
20260504003057 29 65 1.6 3.2 0.00 0.00 0.00 79 1011.0
20260504001556 29 156 3.2 3.2 0.00 0.00 0.00 83 1011.0
20260504000059 29 156 3.2 3.2 0.00 0.00 0.00 83 1011.0
20260503234556 29 107 4.8 4.8 0.00 0.00 0.00 85 1010.0
20260503233056 29 107 4.8 4.8 0.00 0.00 0.00 84 1010.0
20260503231556 29 125 3.2 4.8 0.00 0.00 0.00 88 1010.0
20260503230058 28 125 3.2 4.8 0.00 0.00 0.00 86 1010.0
20260503224556 28 125 3.2 4.8 0.00 0.00 0.00 87 1010.0
20260503223058 28 125 3.2 4.8 0.00 0.00 0.00 85 1010.0
20260503221556 28 154 3.2 4.8 0.00 0.00 0.00 88 1010.0
20260503220057 28 154 3.2 4.8 0.00 0.00 0.00 86 1010.0
20260503214556 28 154 3.2 4.8 0.00 0.00 0.00 86 1010.0
20260503213058 28 154 3.2 4.8 0.00 0.00 0.00 85 1010.0
20260503211556 29 164 4.8 4.8 0.00 0.00 0.00 88 1010.0
20260503210058 29 164 4.8 4.8 0.00 0.00 0.00 86 1010.0